Tucson Davis Monthan, AZ

10:45 AM MST on January 21, 2018 (GMT -0700)
Davis-Monthan Air Force Base

Weather History for KDMA - November, 2012

Change the Weather History Date:

Sunday, November 25, 2012

  Actual Average Record
Temperature  
Mean Temperature 66 °F -  
Max Temperature 80 °F 68 °F 86 °F (2017)
Min Temperature 51 °F 42 °F 26 °F (1992)
Growing Degree Days 16 (Base 50)    
Moisture  
Dew Point 25 °F    
Average Humidity 25    
Maximum Humidity 46    
Minimum Humidity 6    
Precipitation  
Precipitation 0.00 in - - ()
Sea Level Pressure  
Sea Level Pressure 29.87 in    
Wind  
Wind Speed 9 mph (SSE)    
Max Wind Speed 17 mph    
Max Gust Speed -    
Visibility 10 miles    
Events      
Averages and records for this station are not official NWS values.
T = Trace of Precipitation, MM = Missing Value Source: NWS Daily Summary

Daily Weather History Graph

Daily Weather History Graph

Search for Another Location

Airport or City:

Trip Planner

Search our weather history database for the weather conditions in past years. The results will help you decide how hot, cold, wet, or windy it might be!

Date:

Astronomy

Nov. 25, 2012 Rise Set
Actual Time 7:01 AM MST 5:19 PM MST
Civil Twilight 6:35 AM MST 5:45 PM MST
Nautical Twilight 6:05 AM MST 6:15 PM MST
Astronomical Twilight 5:35 AM MST 6:45 PM MST
Moon 3:33 PM MST (11/25) 4:25 AM MST (11/25)
Length of Visible Light 11h 10m
Length of Day
10h 17m
Waxing Gibbous, 93% of the Moon is Illuminated
Nov 25
Waxing Gibbous
Nov 28
Full
Dec 6
Last Quarter
Dec 13
New
Dec 19
First Quarter

Hourly Weather History & Observations

Time (MST) Temp. Dew Point Humidity Pressure Visibility Wind Dir Wind Speed Gust Speed Precip Events Conditions
12:58 AM 57.0 °F 32.0 °F 39% 29.91 in 10.0 mi SE 10.4 mph - N/A   Clear
1:58 AM 58.8 °F 31.5 °F 36% 29.89 in 10.0 mi SE 10.4 mph - N/A   Clear
2:58 AM 58.6 °F 32.0 °F 37% 29.89 in 10.0 mi SE 11.5 mph - N/A   Clear
3:58 AM 58.3 °F 32.4 °F 38% 29.87 in 10.0 mi SE 10.4 mph - N/A   Clear
4:58 AM 57.2 °F 32.0 °F 38% 29.88 in 10.0 mi SE 10.4 mph - N/A   Clear
5:58 AM 54.7 °F 31.8 °F 42% 29.90 in 10.0 mi SSE 11.5 mph - N/A   Clear
6:58 AM 51.8 °F 31.6 °F 46% 29.92 in 10.0 mi SE 10.4 mph - N/A   Clear
7:58 AM 57.6 °F 32.4 °F 39% 29.94 in 10.0 mi ESE 13.8 mph - N/A   Clear
8:58 AM 63.0 °F 32.9 °F 32% 29.95 in 10.0 mi ESE 10.4 mph - N/A   Clear
9:58 AM 68.2 °F 34.3 °F 29% 29.94 in 10.0 mi ESE 4.6 mph - N/A   Clear
10:58 AM 72.1 °F 34.0 °F 25% 29.91 in 10.0 mi ENE 4.6 mph - N/A   Clear
11:58 AM 77.9 °F 24.1 °F 14% 29.87 in 10.0 mi East 4.6 mph - N/A   Clear
12:58 PM 79.3 °F 22.1 °F 12% 29.84 in 10.0 mi NW 6.9 mph - N/A   Clear
1:58 PM 79.9 °F 23.7 °F 13% 29.80 in 10.0 mi Variable 5.8 mph - N/A   Clear
2:58 PM 80.2 °F 19.8 °F 11% 29.79 in 10.0 mi WSW 8.1 mph - N/A   Clear
3:58 PM 80.4 °F 8.4 °F 6% 29.78 in 10.0 mi WSW 17.3 mph - N/A   Clear
4:58 PM 76.6 °F 18.7 °F 11% 29.79 in 10.0 mi West 10.4 mph - N/A   Clear
5:58 PM 71.1 °F 25.9 °F 18% 29.83 in 10.0 mi West 4.6 mph - N/A   Clear
6:58 PM 68.7 °F 17.8 °F 14% 29.84 in 10.0 mi Calm Calm - N/A   Clear
7:58 PM 62.6 °F 13.1 °F 15% 29.87 in 10.0 mi South 3.5 mph - N/A   Clear
8:58 PM 58.5 °F 13.1 °F 17% 29.88 in 10.0 mi SE 5.8 mph - N/A   Clear
9:58 PM 57.2 °F 14.4 °F 19% 29.90 in 10.0 mi SSE 6.9 mph - N/A   Clear
10:58 PM 54.9 °F 15.8 °F 21% 29.90 in 10.0 mi SE 8.1 mph - N/A   Clear
11:58 PM 54.1 °F 16.7 °F 23% 29.89 in 10.0 mi SSE 8.1 mph - N/A   Clear